Location: Bucharest
(44.4268°N, 26.1025°E)
Time: 00:14:38
(UTC+03:00)

O/OREOS (USA 219) - Pass Details

Date: 06 July 2022
Orbit: 621 x 646 km, 72.0° (Epoch: 22 May)

Event Time Altitude Azimuth Distance (km) Brightness Sun altitude
Rises 23:21:40 0° 346° (NNW) 2,966 ? -17.7°
Reaches altitude 10° 23:24:24 10° 2° (N) 2,054 ? -17.9°
Maximum altitude 23:28:01 22° 54° (NE) 1,409 ? -18.2°
Enters shadow 23:30:22 15° 93° (E) 1,710 ? -18.4°
